Find Starlink 38352

NORAD ID: 100542 Int'l Des: 2026-200 Owner: SPXS Country: US Constellation: starlink operational

Current View

Loading 3D Globe...

About Starlink 38352

Starlink 38352 (NORAD 100542) is a starlink constellation satellite launched Sep 2, 2026 by SPXS of US. with a mass of 575.00 kg.

Upcoming Passes

Passes for default location (London). Set your location on the main map for personalized predictions.

Altitude History

Loading altitude history...

Two-Line Element Set

1 A0542U 26200J 26254.48262153 .00332127 00000-0 13262-2 0 9995
2 A0542 69.9961 160.9327 0015704 222.6116 137.3871 15.85399785 1469
Epoch: Sep 11, 2026 • Age: 11 hours

Current Status

Altitude 318.2 km
Apogee / Perigee N/A
Velocity 7.72 km/s
Sub-Earth Point 39.10°N, 9.92°W
Launch Date Sep 2, 2026
Age 9 days
Type internet

Technical Details

Classification Payload
Mass 575.00 kg
Dry Mass 530.00 kg
Total Mass 575.00 kg
Length 0.30 m
Diameter 4.10 m
Span 29.00 m
Shape Box + pan
Manufacturer SPXS
Bus Type Starlink V2MO
Phase Status In Orbit
Owner/State SPXS/US

Most Searched